Location: Saint Louis
(38.6272°N, 90.1978°W)
Time: 17:57:31
(UTC-06:00)

Tiangong 1 - Visible Passes

Search period start: 24 February 2017 00:00
Search period end: 06 March 2017 00:00
Orbit: 338 x 362 km, 42.8° (Epoch: 24 February)

Date Brightness Start Highest point End Pass type
(mag) Time Alt. Az. Time Alt. Az. Time Alt. Az.
24 Feb 1.0 05:07:42 66° NNE 05:07:42 66° NNE 05:10:26 10° ENE visible
25 Feb 1.7 05:31:47 27° WNW 05:32:52 39° N 05:35:40 10° ENE visible
26 Feb 4.1 04:24:18 15° ENE 04:24:18 15° ENE 04:24:55 10° ENE visible
26 Feb 2.0 05:55:47 12° WNW 05:58:15 33° N 06:00:59 10° ENE visible
27 Feb 2.7 04:48:13 28° NE 04:48:13 28° NE 04:50:04 10° ENE visible
28 Feb 2.0 05:12:05 31° NNW 05:12:36 34° N 05:15:19 10° ENE visible
01 Mar 1.6 05:35:55 18° NW 05:37:49 44° NNE 05:40:39 10° E visible
02 Mar 3.6 04:28:14 20° ENE 04:28:14 20° ENE 04:29:27 10° ENE visible
02 Mar 0.9 05:59:58 10° WNW 06:02:53 87° NNE 06:05:48 10° ESE visible
03 Mar 1.6 04:52:03 47° NNE 04:52:03 47° NNE 04:54:40 10° E visible
04 Mar 0.7 05:15:52 40° WNW 05:16:47 80° SSW 05:19:41 10° ESE visible
05 Mar 4.4 04:08:15 12° E 04:08:15 12° E 04:08:30 10° E visible
05 Mar 2.0 05:39:45 16° W 05:41:30 29° SSW 05:44:04 10° SSE visible
